Terminal Aerodrome Forecast
Issued by NWS

Home | Current Version | Previous Version | Text Only | Print | Product List | Glossary On
Versions: 1 2 3 4 5 6 7 8 9 10 11 12 13
000
FTAK31 PANC 182340
TAFADL
TAF
PADL 182340Z 1900/1924 35005KT P6SM SKC
     FM191700 01007KT P6SM SCT050 BKN200
     FM192200 04009KT P6SM -SHSN SCT020 BKN035 WS010/16025KT=

USA.gov is the U.S. government's official web portal to all federal, state and local government web resources and services.